Location: Eymir
(36.7333°N, 29.7833°E)
Time: 17:18:44
(UTC+00:00)

Gbstr 26 Del rocket - Visible Passes

Search period start: 11 April 2026 00:00
Search period end: 21 April 2026 00:00
Orbit: 489 x 1216 km, 51.8° (Epoch: 11 April)

Date Brightness Start Highest point End Pass type
(mag) Time Alt. Az. Time Alt. Az. Time Alt. Az.
11 Apr 5.9 00:27:25 10° NNE 00:27:25 10° NNE 00:27:33 10° NNE visible
16 Apr 4.9 02:54:34 10° NNW 02:57:45 26° NNE 03:01:09 10° E visible
17 Apr 4.7 02:41:52 10° NNW 02:45:09 28° NNE 02:48:38 10° E visible
18 Apr 4.5 02:29:11 10° NNW 02:32:33 31° NNE 02:36:07 10° E visible
19 Apr 5.8 00:32:18 10° N 00:32:43 10° NNE 00:33:07 10° NNE visible
19 Apr 4.3 02:16:30 10° NNW 02:19:56 35° NE 02:23:34 10° ESE visible
20 Apr 5.8 00:19:14 10° N 00:20:10 11° NNE 00:21:05 10° NNE visible
20 Apr 4.0 02:03:48 10° NW 02:07:19 39° NE 02:11:00 10° ESE visible
20 Apr 4.6 18:40:31 10° SSW 18:43:23 28° SSW 18:43:23 28° SSW visible
